Weather History for KCMH - January, 2013

Change the Weather History Date:

Wednesday, January 9, 2013

  Actual Average Record
Temperature  
Mean Temperature 40 °F 29 °F  
Max Temperature 49 °F 36 °F 62 °F (1949)
Min Temperature 31 °F 23 °F -5 °F (1979)
Degree Days  
Heating Degree Days 25 36  
Month to date heating degree days 327 317  
Since 1 July heating degree days 2228 2308  
Cooling Degree Days 0 0  
Month to date cooling degree days 0 0  
Year to date cooling degree days 0 0  
Moisture  
Dew Point 33 °F    
Average Humidity 77    
Maximum Humidity 92    
Minimum Humidity 61    
Precipitation  
Precipitation 0.06 in 0.08 in 0.86 in (1898)
Month to date precipitation 0.11 0.83  
Year to date precipitation 0.11 0.83  
Snow  
Snow 0.00 in 0.30 in 3.10 in (1996)
Month to date snowfall 0.4 2.5  
Since 1 July snowfall 16.1 8.6  
Snow Depth 1.00 in    
Sea Level Pressure  
Sea Level Pressure 30.33 in    
Wind  
Wind Speed 7 mph (SW)    
Max Wind Speed 17 mph    
Max Gust Speed 21 mph    
Visibility 10 miles    
Events Rain    
T = Trace of Precipitation, MM = Missing Value Source: NWS Daily Summary

Daily Weather History Graph

Daily Weather History Graph

Search for Another Location

Airport or City:

Trip Planner

Search our weather history database for the weather conditions in past years. The results will help you decide how hot, cold, wet, or windy it might be!

Date:

Astronomy

Jan. 09, 2013 Rise Set
Actual Time 7:53 AM EST 5:24 PM EST
Civil Twilight 7:23 AM EST 5:54 PM EST
Nautical Twilight 6:49 AM EST 6:28 PM EST
Astronomical Twilight 6:16 AM EST 7:01 PM EST
Moon 5:31 AM EST (1/9) 3:25 PM EST (1/9)
Length of Visible Light 10h 31m
Length of Day
9h 31m
Waning Crescent, 6% of the Moon is Illuminated
Jan 9
Waning Crescent
Jan 11
New
Jan 18
First Quarter
Jan 26
Full
Feb 3
Last Quarter

Hourly Weather History & Observations

Time (EST) Temp. Windchill Dew Point Humidity Pressure Visibility Wind Dir Wind Speed Gust Speed Precip Events Conditions
12:51 AM 36.0 °F 31.1 °F 27.0 °F 70% 30.26 in 10.0 mi SSE 5.8 mph - N/A   Clear
1:51 AM 34.0 °F - 26.1 °F 73% 30.25 in 10.0 mi Calm Calm - N/A   Mostly Cloudy
2:51 AM 32.0 °F - 27.0 °F 82% 30.25 in 10.0 mi Calm Calm - N/A   Mostly Cloudy
3:51 AM 32.0 °F - 27.0 °F 82% 30.24 in 10.0 mi Calm Calm - N/A   Overcast
4:51 AM 36.0 °F 33.3 °F 27.0 °F 70% 30.22 in 10.0 mi South 3.5 mph - N/A   Overcast
5:51 AM 39.0 °F 33.4 °F 28.9 °F 67% 30.22 in 10.0 mi South 8.1 mph - N/A   Overcast
6:51 AM 39.9 °F 34.5 °F 33.1 °F 77% 30.25 in 10.0 mi SSW 8.1 mph - N/A   Overcast
7:51 AM 39.9 °F 34.5 °F 34.0 °F 79% 30.27 in 10.0 mi SSW 8.1 mph - N/A   Overcast
8:51 AM 39.9 °F 34.5 °F 35.1 °F 83% 30.28 in 8.0 mi South 8.1 mph - 0.03 in Rain Light Rain
9:51 AM 39.9 °F 34.5 °F 37.0 °F 89% 30.30 in 8.0 mi SSW 8.1 mph - 0.03 in Rain Light Rain
10:51 AM 42.1 °F 37.1 °F 37.9 °F 85% 30.31 in 8.0 mi SSW 8.1 mph - 0.00 in   Overcast
11:51 AM 43.0 °F 37.2 °F 39.0 °F 86% 30.32 in 9.0 mi WSW 10.4 mph - N/A   Mostly Cloudy
12:51 PM 45.0 °F 38.2 °F 39.0 °F 80% 30.31 in 10.0 mi WSW 15.0 mph - N/A   Mostly Cloudy
1:51 PM 46.9 °F - 39.0 °F 74% 30.31 in 10.0 mi West 12.7 mph - N/A   Mostly Cloudy
2:51 PM 48.0 °F - 37.9 °F 68% 30.33 in 10.0 mi West 11.5 mph - N/A   Mostly Cloudy
3:51 PM 48.0 °F - 36.0 °F 63% 30.35 in 10.0 mi WSW 10.4 mph - N/A   Mostly Cloudy
4:51 PM 46.0 °F 41.9 °F 36.0 °F 68% 30.36 in 10.0 mi WSW 8.1 mph - N/A   Mostly Cloudy
5:51 PM 43.0 °F 40.3 °F 36.0 °F 76% 30.40 in 10.0 mi WSW 4.6 mph - N/A   Mostly Cloudy
6:51 PM 41.0 °F 35.8 °F 33.1 °F 73% 30.43 in 10.0 mi West 8.1 mph - N/A   Mostly Cloudy
7:51 PM 37.4 °F 31.4 °F 32.0 °F 81% 30.43 in 10.0 mi West 8.1 mph - N/A   Scattered Clouds
8:51 PM 39.0 °F 35.7 °F 32.0 °F 76% 30.46 in 10.0 mi WSW 4.6 mph - N/A   Scattered Clouds
9:51 PM 37.0 °F 34.5 °F 30.9 °F 79% 30.48 in 10.0 mi SSE 3.5 mph - N/A   Partly Cloudy
10:51 PM 36.0 °F 33.3 °F 30.9 °F 82% 30.51 in 10.0 mi South 3.5 mph - N/A   Partly Cloudy
11:51 PM 33.1 °F - 30.0 °F 89% 30.53 in 10.0 mi Calm Calm - N/A   Partly Cloudy